Location: Ch�ze
(42.9000°N, 0.0333°W)
Time: 23:46:57
(UTC+00:00)

Meteor 1-21 Rocket - Pass Details

Date: 24 January 2021
Orbit: 834 x 907 km, 81.2° (Epoch: 24 February)

Event Time Altitude Azimuth Distance (km) Brightness Sun altitude
Rises 17:44:58 0° 173° (S) 3,367 7.5 -8.0°
Reaches altitude 10° 17:47:25 10° 168° (SSE) 2,436 6.7 -8.4°
Maximum altitude 17:52:43 51° 94° (E) 1,041 4.4 -9.4°
Drops below altitude 10° 17:58:05 10° 20° (NNE) 2,467 6.3 -10.3°
Sets 18:00:34 0° 15° (NNE) 3,413 7.0 -10.7°
